sat.trackr.live / text

‹ back to catalog

STARLINK-3075

NORAD 49409 · 2021-104B

PAYLOAD ACTIVE UNKNOWN

§ Identity

Operator
Country
US
Launch date
2021-11-13
Launch site
AFETR
Launch vehicle
Mass (kg)
RCS (m²)

Purposes: comms

External: N2YO · Heavens-Above · Gunter

§ Orbital elements

Epoch: 2026-05-24T16:53:50.897184Z

Period
95.44 min
Inclination
53.2156°
Eccentricity
0.0001188
Mean motion
15.08779964 rev/d
Perigee alt
539.1 km
Apogee alt
540.7 km
Semi-major
6,918.1 km
B*
-4.7297e-4
RAAN
247.8801°
Arg perigee
63.0940°
Mean anomaly
297.0173°
Rev number
25,011

§ Raw data

STARLINK-30751 49409U 21104B   26144.70406131 -.00007795  00000+0 -47297-3 0  99942 49409  53.2156 247.8801 0001188  63.0940 297.0173 15.08779964250114

JSON: /api/v1/satellites/49409 · /tle

For live sub-satellite position, see the globe view (requires WebGL).

§ Visibility from observer

Set your observer location to see the next 7 days of passes ≥ 10°. The values pass through the URL so the page stays shareable.

No JS? Fill the form by hand. The geolocation button needs JavaScript.